Find GRUS-1B

NORAD ID: 47934 Int'l Des: 2021-022 Owner: AXEL Country: J operational
LEOCIRCULARRETROGRADESSO

Live Position

Loading 3D Globe...

About GRUS-1B

Description loading...

Upcoming Passes

Passes for default location (London). Set your location on the main map for personalized predictions.

Altitude History

Loading altitude history...

Two-Line Element Set

1 47934U 21022C 26104.15688617 .00001429 00000-0 12291-3 0 9993
2 47934 97.5464 349.4327 0017051 169.5262 190.6320 14.98833601276303
Epoch: Apr 14, 2026 • Age: 6 hours

Current Status

Altitude 561.2 km
Velocity 7.59 km/s
Sub-Earth Point 5.65°N, 172.36°W
Launch Date Mar 22, 2021
Age 5 years
Type other

Technical Details

Classification Payload
Mass 80.00 kg
Dry Mass 80.00 kg
Total Mass 80.00 kg
Length 0.50 m
Diameter 0.50 m
Span 0.50 m
Shape Box
Manufacturer AXEL
Bus Type GRUS
Phase Status In Orbit
Owner/State AXEL/J

Most Searched